Fort Lauderdale, FL

4:51 PM EST on February 07, 2016 (GMT -0500)
Fort Lauderdale Executive

Weather History for KFXE - January, 2013

Change the Weather History Date:

Thursday, January 10, 2013

  Actual Average Record
Temperature  
Mean Temperature 77 °F -  
Max Temperature 81 °F 77 °F 84 °F (1971)
Min Temperature 73 °F 59 °F 33 °F (1956)
Cooling Degree Days 12    
Growing Degree Days 27 (Base 50)    
Moisture  
Dew Point 65 °F    
Average Humidity 67    
Maximum Humidity 76    
Minimum Humidity 49    
Precipitation  
Precipitation 0.00 in - - ()
Sea Level Pressure  
Sea Level Pressure 30.26 in    
Wind  
Wind Speed 14 mph (East)    
Max Wind Speed 22 mph    
Max Gust Speed 29 mph    
Visibility 10 miles    
Events      
Averages and records for this station are not official NWS values.
T = Trace of Precipitation, MM = Missing Value Source: NWS Daily Summary

Daily Weather History Graph

Daily Weather History Graph

Search for Another Location

Airport or City:

Trip Planner

Search our weather history database for the weather conditions in past years. The results will help you decide how hot, cold, wet, or windy it might be!

Date:

Astronomy

Jan. 10, 2013 Rise Set
Actual Time 7:09 AM EST 5:47 PM EST
Civil Twilight 6:44 AM EST 6:12 PM EST
Nautical Twilight 6:16 AM EST 6:40 PM EST
Astronomical Twilight 5:48 AM EST 7:08 PM EST
Moon 5:48 AM EST (1/10) 4:51 PM EST (1/10)
Length of Visible Light 11h 27m
Length of Day
10h 37m
Waning Crescent, 2% of the Moon is Illuminated
Jan 10
Waning Crescent
Jan 11
New
Jan 18
First Quarter
Jan 26
Full
Feb 3
Last Quarter

Hourly Weather History & Observations

Time (EST) Temp. Heat Index Dew Point Humidity Pressure Visibility Wind Dir Wind Speed Gust Speed Precip Events Conditions
12:53 AM 75.9 °F - 68.0 °F 76% 30.28 in 10.0 mi ESE 13.8 mph - N/A   Scattered Clouds
1:53 AM 75.9 °F - 66.0 °F 71% 30.27 in 10.0 mi East 15.0 mph 23.0 mph N/A   Scattered Clouds
2:53 AM 75.9 °F - 66.0 °F 71% 30.26 in 10.0 mi ESE 15.0 mph - N/A   Mostly Cloudy
3:53 AM 75.0 °F - 64.9 °F 71% 30.26 in 10.0 mi ESE 13.8 mph - N/A   Scattered Clouds
4:53 AM 75.0 °F - 64.9 °F 71% 30.26 in 10.0 mi ESE 11.5 mph - N/A   Clear
5:53 AM 73.0 °F - 64.9 °F 76% 30.26 in 10.0 mi ESE 9.2 mph - N/A   Clear
6:53 AM 75.0 °F - 64.9 °F 71% 30.27 in 10.0 mi East 11.5 mph - N/A   Mostly Cloudy
7:53 AM 75.0 °F - 63.0 °F 66% 30.29 in 10.0 mi ESE 15.0 mph - N/A   Clear
8:53 AM 78.1 °F - 64.0 °F 62% 30.31 in 10.0 mi ESE 15.0 mph - N/A   Partly Cloudy
9:53 AM 79.0 °F - 63.0 °F 58% 30.30 in 10.0 mi East 17.3 mph - N/A   Clear
10:53 AM 80.1 °F 81.9 °F 64.9 °F 60% 30.29 in 10.0 mi ESE 18.4 mph 24.2 mph N/A   Partly Cloudy
11:53 AM 81.0 °F 82.2 °F 63.0 °F 54% 30.26 in 10.0 mi ESE 21.9 mph 25.3 mph N/A   Partly Cloudy
12:53 PM 80.1 °F 81.2 °F 62.1 °F 54% 30.22 in 10.0 mi East 20.7 mph 28.8 mph N/A   Scattered Clouds
1:53 PM 81.0 °F 81.6 °F 60.1 °F 49% 30.19 in 10.0 mi East 18.4 mph 25.3 mph N/A   Scattered Clouds
2:53 PM 80.1 °F 81.5 °F 63.0 °F 56% 30.21 in 10.0 mi East 18.4 mph 25.3 mph N/A   Scattered Clouds
3:53 PM 78.1 °F - 64.9 °F 64% 30.24 in 10.0 mi East 13.8 mph 18.4 mph N/A   Scattered Clouds
4:53 PM 78.1 °F - 64.9 °F 64% 30.25 in 10.0 mi ESE 13.8 mph - N/A   Scattered Clouds
5:53 PM 75.9 °F - 66.0 °F 71% 30.26 in 10.0 mi East 10.4 mph - N/A   Scattered Clouds
6:00 PM 75.2 °F - 66.2 °F 73% 30.25 in 10.0 mi East 8.1 mph - N/A   Mostly Cloudy
6:07 PM 75.2 °F - 66.2 °F 73% 30.25 in 10.0 mi East 8.1 mph - N/A   Scattered Clouds
6:14 PM 75.2 °F - 66.2 °F 73% 30.26 in 10.0 mi East 6.9 mph - N/A   Mostly Cloudy
6:38 PM 75.2 °F - 66.2 °F 73% 30.26 in 10.0 mi East 9.2 mph - N/A   Partly Cloudy
6:53 PM 75.0 °F - 64.9 °F 71% 30.27 in 10.0 mi East 9.2 mph - N/A   Partly Cloudy
7:53 PM 75.0 °F - 64.9 °F 71% 30.27 in 10.0 mi East 11.5 mph - N/A   Clear
8:53 PM 75.0 °F - 64.9 °F 71% 30.26 in 10.0 mi East 11.5 mph - N/A   Clear
9:53 PM 75.9 °F - 64.0 °F 67% 30.27 in 10.0 mi East 10.4 mph - N/A   Clear
10:53 PM 75.9 °F - 66.0 °F 71% 30.27 in 10.0 mi ESE 12.7 mph - N/A   Scattered Clouds
11:53 PM 75.9 °F - 66.0 °F 71% 30.26 in 10.0 mi ESE 15.0 mph - N/A   Scattered Clouds